User: anonymous   Login
Location: Unspecified
(0.0000°N, 0.0000°E)
Time: 20:18:30
(UTC+00:00)
Language:

YAOGAN-40 02A - Orbit

View from above orbital plane
View from above orbital plane
View from above satellite
View from above satellite

Ground track
Ground track

The orbit is defined by the following mean orbital elements,

1 63918U          26145.61130252 +.00000000 +00000-0 +32943-4 0 00003
2 63918  85.9969 198.0811 0002470 104.8812 255.2644 14.12442974    06
Epoch (UTC): 25 May 2026 14:40:16
Eccentricity: 0.0002470
inclination: 85.9969°
perigee height: 849 km
apogee height: 853 km
right ascension of ascending node: 198.0811°
argument of perigee: 104.8812°
revolutions per day: 14.12442974
mean anomaly at epoch: 255.2644°

The dashed part of the orbit path shows where the satellite is in the earth's shadow,  

DLR